Regional Weather Roundup
Issued by NWS

Home | Current Version | Previous Version | Graphics & Text | Print | Product List | Glossary Off
Versions: 1 2 3 4 5 6 7 8 9 10 11 12 13 14 15 16 17 18 19 20 21 22 23 24 25 26 27 28 29 30 31 32 33 34 35 36 37 38 39 40 41 42 43 44 45 46 47 48 49 50

000
ASUS45 KABQ 172010
RWRNM
NEW MEXICO REGIONAL WEATHER ROUNDUP
NATIONAL WEATHER SERVICE ALBUQUERQUE NM
100 PM MST TUE JAN 17 2017

NOTE: "FAIR" MEANS FEW OR NO CLOUDS BELOW 12,000 FEET AGL WITH NO
       SIGNIFICANT WEATHER OR OBSTRUCTIONS TO VISION.

      THIS PRODUCT IS RELEASED AS TWO VERSIONS.  ONE VERSION NEAR
      THE TOP OF THE HOUR CONTAINING PRELIMINARY DATA FROM ALBUQUERQUE
      AND OTHER STATIONS.  A FINAL VERSION WITH ADDITIONAL DATA IS
      ISSUED ABOUT 10 MINUTES AFTER THE HOUR.

NMZ501-503-504-510>518-172100-
NORTHWEST PLATEAU/NORTHCENTRAL MOUNTAINS

CITY           SKY/WX    TMP DP  RH WIND       PRES   REMARKS
FARMINGTON     PTSUNNY   40  34  79 S5        30.14F
LOS ALAMOS     FAIR      37  31  79 CALM      30.14F
SANTA FE       PTSUNNY   45  32  60 N5        30.11F
TAOS           FAIR      36  25  64 CALM      30.13F
ANGEL FIRE     FAIR      33  25  73 SW9       30.11F WCI  25

$$
NMZ402-403-502-505>509-172100-
WESTCENTRAL MOUNTAINS/SOUTHWEST MOUNTAINS

CITY           SKY/WX    TMP DP  RH WIND       PRES   REMARKS
GALLUP         PTSUNNY   39  33  79 NW5       30.13F
GRANTS         CLOUDY    39  34  81 SE6       30.15F WCI  35
SILVER CITY    CLOUDY    49  33  56 E5        30.08F

$$
NMZ407-409-411-412-172100-
SOUTHERN DESERTS

CITY           SKY/WX    TMP DP  RH WIND       PRES   REMARKS
DEMING         CLOUDY    52  39  61 N10       30.06F
LAS CRUCES     FAIR      51  38  61 NE5       30.08F
HOLLOMAN AFB   CLOUDY    49  41  75 CALM      30.11F
ALAMOGORDO     CLOUDY    50  39  66 SW5       30.09F
T OR C         FAIR      51  37  58 VRB3      30.08F

$$
NMZ519>523-172100-
CENTRAL VALLEYS/CENTRAL HIGHLANDS

CITY           SKY/WX    TMP DP  RH WIND       PRES   REMARKS
ALBUQUERQUE    FAIR      48  35  60 W5        30.12F
DOUBLE EAGLE   PTSUNNY   45  36  70 VRB3      30.13F
MORIARTY ARPT  CLOUDY    37  32  81 SE5       30.15F WCI  33
CLINES CORNERS CLOUDY    32  29  88 W7        30.12F WCI  26
BELEN          FAIR      46  35  66 W5        30.12F
SOCORRO        FAIR      49  37  63 N9        30.10F

$$
NMZ524>526-539-540-172100-
SOUTHCENTRAL MOUNTAINS

CITY           SKY/WX    TMP DP  RH WIND       PRES   REMARKS
RUIDOSO        CLOUDY    34  34 100 SE6       30.13F WCI  29

$$
NMZ527>531-172100-
NORTHEAST HIGHLANDS/NORTHEAST PLAINS

CITY           SKY/WX    TMP DP  RH WIND       PRES   REMARKS
LAS VEGAS      FAIR      37  31  78 S13       30.09F WCI  29
RATON          FAIR      33  26  75 S7        30.08F WCI  27
CLAYTON        FAIR      43  37  79 SW16      30.07

$$
NMZ532>537-172100-
EASTCENTRAL PLAINS

CITY           SKY/WX    TMP DP  RH WIND       PRES   REMARKS
TUCUMCARI      FAIR      50  35  56 W12       30.10F
CANNON AFB     FAIR      49  40  71 SW9       30.09F
CLOVIS AIRPORT FAIR      48  36  61 SW6       30.10F

$$
NMZ028-029-538-172100-
SOUTHEAST PLAINS

CITY           SKY/WX    TMP DP  RH WIND       PRES   REMARKS
ROSWELL        FAIR      50  34  54 N8        30.08F
ARTESIA        PTSUNNY   48  37  66 VRB7      30.10F
CARLSBAD       CLOUDY    46  37  71 N3        30.11F
HOBBS          PTSUNNY   48  39  71 NE6       30.10F


$$



USA.gov is the U.S. government's official web portal to all federal, state and local government web resources and services.